This is the latest recevied weather packets stored in our database for station/object K1BWE-1. If no packets are shown the sender has not sent any weather packets the latest 10 day(s).
| Time | Temp. | Humidity | Pressure | Rain* | Wind** | Luminosity | Snow |
|---|---|---|---|---|---|---|---|
| 1777665044 | 26.67° C | 31% | 1013.7 hPa | 0 mm | - | 764 W/m² | - |
| 1777664739 | 26.11° C | 29% | 1014 hPa | 0 mm | - | 709 W/m² | - |
| 1777664436 | 26.11° C | 29% | 1014.1 hPa | 0 mm | - | 702 W/m² | - |
| 1777664133 | 26.11° C | 27% | 1014 hPa | 0 mm | - | 739 W/m² | - |
| 1777663832 | 26.11° C | 26% | 1014.3 hPa | 0 mm | - | 735 W/m² | - |
| 1777663528 | 26.11° C | 30% | 1014.3 hPa | 0 mm | - | 772 W/m² | - |
| 1777663226 | 25.56° C | 28% | 1014.3 hPa | 0 mm | - | 770 W/m² | - |
| 1777662923 | 25.56° C | 27% | 1014.2 hPa | 0 mm | - | 772 W/m² | - |
| 1777662620 | 25.56° C | 27% | 1014.3 hPa | 0 mm | - | 778 W/m² | - |
| 1777662316 | 25° C | 30% | 1014.5 hPa | 0 mm | - | 762 W/m² | - |
| 1777662011 | 25.56° C | 27% | 1014.5 hPa | 0 mm | - | 766 W/m² | - |
| 1777661708 | 25.56° C | 28% | 1014.7 hPa | 0 mm | - | 748 W/m² | - |
| 1777661403 | 25.56° C | 28% | 1014.9 hPa | 0 mm | - | 750 W/m² | - |
| 1777661100 | 25° C | 29% | 1014.8 hPa | 0 mm | - | 742 W/m² | - |
| 1777660794 | 25° C | 29% | 1014.9 hPa | 0 mm | - | 746 W/m² | - |
| 1777660492 | 25° C | 30% | 1015 hPa | 0 mm | - | 736 W/m² | - |
| 1777660183 | 24.44° C | 31% | 1014.9 hPa | 0 mm | - | 714 W/m² | - |
| 1777659880 | 25° C | 29% | 1015 hPa | 0 mm | - | 710 W/m² | - |
| 1777659576 | 25° C | 30% | 1015.2 hPa | 0 mm | - | 729 W/m² | - |
| 1777659273 | 24.44° C | 30% | 1015.2 hPa | 0 mm | - | 764 W/m² | - |
| 1777658970 | 23.89° C | 31% | 1015.3 hPa | 0 mm | - | 789 W/m² | - |
| 1777658667 | 24.44° C | 30% | 1015.3 hPa | 0 mm | - | 788 W/m² | - |
| 1777658363 | 25° C | 30% | 1015.4 hPa | 0 mm | - | 781 W/m² | - |
| 1777658060 | 23.89° C | 34% | 1015.3 hPa | 0 mm | - | 752 W/m² | - |
| 1777657756 | 23.33° C | 31% | 1015.3 hPa | 0 mm | - | 746 W/m² | - |
* Rain latest hour (hover to see other rain measurements)
** Current wind speed in m/s (hover to see current wind gust speed)